Weather Roundup
Issued by NWS Chicago, IL

Home | Current Version | Previous Version | Text Only | Print | Product List | Glossary Off
Versions: 1 2 3 4 5 6 7 8 9 10 11 12 13 14 15 16 17 18 19 20 21 22 23 24 25 26 27 28 29 30 31 32 33 34 35 36 37 38 39 40 41 42 43 44 45 46 47 48 49 50

000
NZUS59 KLOT 011700
HRRLOT

CHICAGO AREA WEATHER ROUNDUP
NATIONAL WEATHER SERVICE CHICAGO/ROMEOVILLE IL
1200 PM CDT TUE SEP 01 2015

NOTE: "FAIR" INDICATES FEW OR NO CLOUDS BELOW 12,000 FEET WITH NO
SIGNIFICANT WEATHER AND/OR OBSTRUCTIONS TO VISIBILITY.

* THESE STATIONS ARE NOT UNDER NWS QUALITY CONTROL. THEY ALSO MAY NOT
  REPORT WEATHER SUCH AS PRECIPITATION OR FOG.

ILZ005-006-012>014-019>023-011800-
NORTHEAST ILLINOIS

CITY           SKY/WX    TMP DP  RH WIND       PRES   REMARKS
OHARE          MOSUNNY   85  73  67 S7        30.04F HX  91
MIDWAY         MOSUNNY   87  72  60 S10       30.05F HX  93
AURORA         SUNNY     85  74  69 S7        30.06S HX  92
WAUKEGAN       NOT AVBL
DUPAGE AIRPORT SUNNY     85  73  67 S7        30.05S HX  91
WHEELING       MOSUNNY   86  72  62 S9        30.05S HX  92
NORTHERLY IS     N/A     84  70  62 S10         N/A  HX  88
$$

WIZ051-052-058>065-066-070>072-011800-
SOUTHEAST WISCONSIN

CITY           SKY/WX    TMP DP  RH WIND       PRES   REMARKS
MILWAUKEE      SUNNY     86  70  58 S10       30.01F HX  90
KENOSHA*       SUNNY     86  72  62 S7        30.03F HX  92
RACINE*        SUNNY     86  72  62 SE10      30.03F HX  92
$$

INZ001>003-010>013-019-020-011800-
NORTHWEST INDIANA

CITY           SKY/WX    TMP DP  RH WIND       PRES   REMARKS
GARY*          PTSUNNY   84  72  65 S14       30.08R HX  89
MICHIGAN CITY* NOT AVBL
RENSSELAER*    NOT AVBL
VALPARAISO     PTSUNNY   82  71  69 SW16      30.10S HX  86
$$

LMZ740>746-011800-
SOUTHERN LAKE MICHIGAN

STATION/POSITION TIME  SKY/WX   TEMP WIND        PRES    VSBY
                                AIR  DIR/SP/G
                 (UTC)          (F)  (DEG/KT/KT) (MB)    (MI)
HARRISON CRIB    1600            77  170/ 12/ 13   N/A
BURNHAM HARBOR   1600            83  170/  4/  7   N/A
CALUMET HARBOR   1600            81  180/  6/  9   N/A
BURNS HARBOR     1600            81  180/  8/ 10 1018.6S
MICHIGAN CITY    1600            80  150/ 10/ 11   N/A
$$

ABBREVIATIONS USED IN REMARKS
   TC - TEMPERATURE IN CELSIUS
  WCI - WIND CHILL INDEX
   HX - HEAT INDEX
  VSB - VISIBILITY
$$


USA.gov is the U.S. government's official web portal to all federal, state and local government web resources and services.